TimeEST,TemperatureF,Dew PointF,Humidity,Sea Level PressureIn,VisibilityMPH,Wind Direction,Wind SpeedMPH,Gust SpeedMPH,PrecipitationIn,Events,Conditions,WindDirDegrees,DateUTC
12:51 AM,9.1,3.0,76,29.98,10.0,North,-9999.0,-,N/A,,Clear,0,2013-01-04 05:51:00
1:51 AM,8.1,3.0,80,29.97,10.0,North,-9999.0,-,N/A,,Clear,0,2013-01-04 06:51:00
2:51 AM,7.2,2.1,80,29.97,10.0,North,-9999.0,-,N/A,,Clear,0,2013-01-04 07:51:00
3:51 AM,6.1,2.1,84,29.96,10.0,North,-9999.0,-,N/A,,Clear,0,2013-01-04 08:51:00
4:51 AM,7.2,2.1,80,29.95,10.0,North,-9999.0,-,N/A,,Clear,0,2013-01-04 09:51:00
5:51 AM,6.1,1.0,80,29.96,10.0,North,-9999.0,-,N/A,,Mostly Cloudy,0,2013-01-04 10:51:00
6:51 AM,7.2,2.1,80,29.97,10.0,North,-9999.0,-,N/A,,Scattered Clouds,0,2013-01-04 11:51:00
7:51 AM,25.2,17.1,71,29.96,10.0,North,-9999.0,-,N/A,,Overcast,0,2013-01-04 12:51:00
8:51 AM,26.1,18.1,72,29.95,10.0,North,-9999.0,-,N/A,,Overcast,0,2013-01-04 13:51:00
9:51 AM,30.0,19.0,64,29.93,10.0,North,-9999.0,-,N/A,,Clear,0,2013-01-04 14:51:00
10:51 AM,31.1,19.0,61,29.91,10.0,North,-9999.0,-,N/A,,Partly Cloudy,0,2013-01-04 15:51:00
11:51 AM,34.0,19.0,54,29.85,10.0,WSW,11.5,19.6,N/A,,Clear,250,2013-01-04 16:51:00
12:51 PM,36.0,18.1,48,29.83,10.0,WSW,6.9,-,N/A,,Clear,240,2013-01-04 17:51:00
1:51 PM,36.0,19.0,50,29.81,10.0,North,-9999.0,-,N/A,,Clear,0,2013-01-04 18:51:00
2:51 PM,36.9,20.1,51,29.82,10.0,North,-9999.0,-,N/A,,Clear,0,2013-01-04 19:51:00
3:51 PM,36.9,20.1,51,29.83,10.0,North,-9999.0,-,N/A,,Clear,0,2013-01-04 20:51:00
4:51 PM,34.9,19.0,52,29.82,10.0,SW,3.5,-,N/A,,Mostly Cloudy,230,2013-01-04 21:51:00
5:51 PM,34.0,20.1,57,29.84,10.0,SW,3.5,-,N/A,,Mostly Cloudy,220,2013-01-04 22:51:00
6:51 PM,34.0,20.1,57,29.84,10.0,Calm,Calm,-,N/A,,Mostly Cloudy,0,2013-01-04 23:51:00
7:51 PM,32.0,19.0,59,29.84,10.0,Variable,4.6,-,N/A,,Clear,0,2013-01-05 00:51:00
8:51 PM,32.0,19.0,59,29.84,10.0,North,-9999.0,-,N/A,,Overcast,0,2013-01-05 01:51:00
9:51 PM,34.0,19.0,54,29.85,10.0,North,-9999.0,-,N/A,,Overcast,0,2013-01-05 02:51:00
10:51 PM,34.9,19.0,52,29.84,10.0,North,-9999.0,-,N/A,,Overcast,0,2013-01-05 03:51:00
11:51 PM,34.9,18.1,51,29.84,10.0,North,-9999.0,-,N/A,,Overcast,0,2013-01-05 04:51:00